Weather History for KUAO - April, 2013

Change the Weather History Date:

Wednesday, April 10, 2013

  Actual Average Record
Temperature  
Mean Temperature 54 °F -  
Max Temperature 61 °F - - ()
Min Temperature 45 °F - - ()
Degree Days  
Heating Degree Days 12    
Month to date heating degree days 125  
Since 1 July heating degree days 3779  
Cooling Degree Days 0    
Month to date cooling degree days 0  
Year to date cooling degree days 0  
Growing Degree Days 4 (Base 50)    
Moisture  
Dew Point 45 °F    
Average Humidity 73    
Maximum Humidity 89    
Minimum Humidity 57    
Precipitation  
Precipitation 0.03 in - - ()
Month to date precipitation 1.43  
Year to date precipitation 7.44  
Sea Level Pressure  
Sea Level Pressure 30.23 in    
Wind  
Wind Speed 8 mph (SW)    
Max Wind Speed 22 mph    
Max Gust Speed 31 mph    
Visibility 10 miles    
Events Rain    
T = Trace of Precipitation, MM = Missing Value Source: NWS Daily Summary

Daily Weather History Graph

Daily Weather History Graph

Search for Another Location

Airport or City:

Trip Planner

Search our weather history database for the weather conditions in past years. The results will help you decide how hot, cold, wet, or windy it might be!

Date:

Astronomy

Apr. 10, 2013 Rise Set
Actual Time 6:34 AM PDT 7:51 PM PDT
Civil Twilight 6:03 AM PDT 8:21 PM PDT
Nautical Twilight 5:27 AM PDT 8:58 PM PDT
Astronomical Twilight 4:48 AM PDT 9:37 PM PDT
Moon 6:31 AM PDT (4/10) 8:35 PM PDT (4/10)
Length of Visible Light 14h 17m
Length of Day
13h 16m
New Moon, 0% of the Moon is Illuminated
Apr 10
New Moon
Apr 18
First Quarter
Apr 25
Full
May 2
Last Quarter
May 9
New

Hourly Weather History & Observations

Time (PDT) Temp. Dew Point Humidity Pressure Visibility Wind Dir Wind Speed Gust Speed Precip Events Conditions
12:53 AM 52.0 °F 48.0 °F 86% 30.26 in 10.0 mi Calm Calm - N/A   Overcast
1:53 AM 52.0 °F 48.0 °F 86% 30.25 in 10.0 mi Calm Calm - N/A   Overcast
2:53 AM 52.0 °F 46.9 °F 83% 30.23 in 10.0 mi SSW 4.6 mph - N/A   Overcast
3:53 AM 52.0 °F 45.0 °F 77% 30.22 in 10.0 mi South 8.1 mph - N/A   Overcast
4:53 AM 52.0 °F 44.1 °F 74% 30.21 in 10.0 mi SSW 9.2 mph 17.3 mph N/A   Overcast
5:53 AM 51.1 °F 45.0 °F 80% 30.20 in 10.0 mi SSW 5.8 mph - N/A   Overcast
6:53 AM 52.0 °F 44.1 °F 74% 30.18 in 10.0 mi SSW 10.4 mph 17.3 mph N/A   Overcast
7:53 AM 52.0 °F 43.0 °F 71% 30.17 in 10.0 mi South 19.6 mph 27.6 mph N/A   Overcast
8:19 AM 51.8 °F 42.8 °F 71% 30.17 in 10.0 mi South 18.4 mph 24.2 mph N/A   Overcast
8:53 AM 52.0 °F 43.0 °F 71% 30.16 in 10.0 mi SSW 18.4 mph 29.9 mph N/A   Overcast
10:26 AM 51.8 °F 48.2 °F 88% 30.16 in 10.0 mi South 16.1 mph 21.9 mph 0.03 in Rain Light Rain
10:53 AM 51.1 °F 48.0 °F 89% 30.19 in 8.0 mi SSW 12.7 mph 23.0 mph 0.03 in Rain Light Rain
11:09 AM 51.8 °F 48.2 °F 88% 30.19 in 6.0 mi SSW 10.4 mph 18.4 mph 0.00 in Rain Light Rain
11:46 AM 53.6 °F 50.0 °F 88% 30.20 in 10.0 mi South 13.8 mph - 0.00 in   Overcast
11:53 AM 53.1 °F 50.0 °F 89% 30.20 in 10.0 mi South 12.7 mph - 0.00 in   Overcast
12:53 PM 57.0 °F 52.0 °F 83% 30.20 in 10.0 mi South 16.1 mph 25.3 mph N/A   Mostly Cloudy
1:39 PM 59.0 °F 50.0 °F 72% 30.22 in 10.0 mi WSW 10.4 mph 21.9 mph 0.00 in   Overcast
1:53 PM 57.9 °F 50.0 °F 75% 30.23 in 10.0 mi SW 9.2 mph - 0.00 in Rain Light Rain
2:08 PM 57.2 °F 48.2 °F 72% 30.23 in 10.0 mi WSW 9.2 mph 18.4 mph 0.00 in   Overcast
2:31 PM 60.8 °F 48.2 °F 63% 30.24 in 10.0 mi Variable 6.9 mph - 0.00 in   Scattered Clouds
2:53 PM 59.0 °F 46.0 °F 62% 30.25 in 10.0 mi Variable 5.8 mph 16.1 mph 0.00 in   Mostly Cloudy
3:53 PM 59.0 °F 48.0 °F 67% 30.25 in 10.0 mi North 9.2 mph - N/A   Overcast
4:53 PM 59.0 °F 45.0 °F 60% 30.24 in 10.0 mi West 5.8 mph - N/A   Overcast
5:53 PM 57.0 °F 44.1 °F 62% 30.25 in 10.0 mi NNW 8.1 mph - N/A   Overcast
6:53 PM 54.0 °F 39.0 °F 57% 30.26 in 10.0 mi NNW 5.8 mph - N/A   Mostly Cloudy
7:53 PM 52.0 °F 37.9 °F 59% 30.28 in 10.0 mi NNW 8.1 mph - N/A   Overcast
8:53 PM 50.0 °F 37.9 °F 63% 30.31 in 10.0 mi North 8.1 mph - N/A   Overcast
9:53 PM 48.9 °F 37.9 °F 66% 30.34 in 10.0 mi Calm Calm - N/A   Overcast
10:53 PM 48.0 °F 39.0 °F 71% 30.35 in 10.0 mi Calm Calm - N/A   Overcast
11:53 PM 48.0 °F 39.0 °F 71% 30.36 in 10.0 mi Calm Calm - N/A   Overcast